Weather History for KPNA - January, 2012

Change the Weather History Date:

Friday, January 27, 2012

  Actual Average (KBPI) Record (KBPI)
Temperature  
Mean Temperature 7 °F 11 °F  
Max Temperature 18 °F 26 °F 44 °F (1988)
Min Temperature -5 °F -2 °F -29 °F (2009)
Degree Days  
Heating Degree Days 58 54  
Month to date heating degree days 1458  
Since 1 July heating degree days 5897  
Cooling Degree Days 0 0  
Month to date cooling degree days 0  
Year to date cooling degree days 0  
Moisture  
Dew Point 2 °F    
Average Humidity 72    
Maximum Humidity 98    
Minimum Humidity 53    
Precipitation  
Precipitation 0.00 in 0.01 in 0.11 in (1996)
Month to date precipitation 0.28  
Year to date precipitation 0.28  
Sea Level Pressure  
Sea Level Pressure 30.16 in    
Wind  
Wind Speed 12 mph (WNW)    
Max Wind Speed 18 mph    
Max Gust Speed 23 mph    
Visibility 10 miles    
Events      
T = Trace of Precipitation, MM = Missing Value Source: NWS Daily Summary

Daily Weather History Graph

Daily Weather History Graph

Search for Another Location

Airport or City:

Trip Planner

Search our weather history database for the weather conditions in past years. The results will help you decide how hot, cold, wet, or windy it might be!

Date:

Astronomy

Jan. 27, 2012 Rise Set
Actual Time 7:39 AM MST 5:25 PM MST
Civil Twilight 7:08 AM MST 5:55 PM MST
Nautical Twilight 6:34 AM MST 6:29 PM MST
Astronomical Twilight 6:01 AM MST 7:03 PM MST
Moon 9:27 AM MST (1/27) 10:28 PM MST (1/27)
Length of Visible Light 10h 47m
Length of Day
9h 46m
Waxing Crescent, 20% of the Moon is Illuminated
Jan 27
Waxing Crescent
Jan 30
First Quarter
Feb 7
Full
Feb 14
Last Quarter
Feb 21
New

Hourly Weather History & Observations

Time (MST) Temp. Windchill Dew Point Humidity Pressure Visibility Wind Dir Wind Speed Gust Speed Precip Events Conditions
12:15 AM - - - N/A% 29.94 in 10.0 mi WNW 9.2 mph - N/A   Mostly Cloudy
12:35 AM - - - N/A% 29.95 in 10.0 mi WNW 12.7 mph - N/A   Scattered Clouds
12:55 AM - - - N/A% 29.94 in 10.0 mi WNW 10.4 mph - N/A   Scattered Clouds
1:15 AM - - - N/A% 29.95 in 10.0 mi NW 10.4 mph - N/A   Scattered Clouds
1:35 AM - - - N/A% 29.97 in 10.0 mi WNW 11.5 mph - N/A   Clear
1:55 AM - - - N/A% 29.97 in 10.0 mi West 9.2 mph - N/A   Scattered Clouds
2:15 AM 14.9 °F 0.3 °F 14.4 °F 98% 29.98 in 10.0 mi West 13.8 mph - N/A   Scattered Clouds
2:35 AM 14.7 °F 1.4 °F 14.0 °F 97% 29.98 in 10.0 mi WNW 11.5 mph - N/A   Scattered Clouds
2:55 AM 13.8 °F 0.2 °F 12.9 °F 96% 29.99 in 10.0 mi WNW 11.5 mph - N/A   Scattered Clouds
3:15 AM 13.8 °F -0.5 °F 12.6 °F 95% 29.99 in 10.0 mi West 12.7 mph - N/A   Scattered Clouds
3:35 AM 11.7 °F 0.0 °F 9.7 °F 92% 30.00 in 10.0 mi WNW 8.1 mph - N/A   Scattered Clouds
3:55 AM 8.8 °F -7.5 °F 6.8 °F 92% 30.01 in 10.0 mi NW 13.8 mph 19.6 mph N/A   Scattered Clouds
4:15 AM 16.0 °F 1.7 °F 13.8 °F 91% 30.03 in 10.0 mi WNW 13.8 mph - N/A   Scattered Clouds
4:35 AM 17.4 °F 3.5 °F 12.6 °F 81% 30.03 in 10.0 mi WNW 13.8 mph - N/A   Scattered Clouds
4:55 AM 17.6 °F 3.2 °F 13.6 °F 84% 30.05 in 10.0 mi NW 15.0 mph - N/A   Mostly Cloudy
5:35 AM 10.0 °F -2.9 °F 7.5 °F 90% 30.08 in 10.0 mi West 9.2 mph - N/A   Scattered Clouds
5:55 AM 9.0 °F -6.6 °F 3.7 °F 79% 30.09 in 10.0 mi NW 12.7 mph - N/A   Clear
6:15 AM 8.2 °F -8.2 °F 1.0 °F 72% 30.09 in 10.0 mi WNW 13.8 mph - N/A   Clear
6:35 AM 8.6 °F -7.7 °F 1.0 °F 71% 30.11 in 10.0 mi NW 13.8 mph - N/A   Clear
6:55 AM 5.2 °F -7.9 °F -1.5 °F 74% 30.13 in 10.0 mi NNW 8.1 mph - N/A   Clear
7:15 AM 5.2 °F -11.4 °F -1.8 °F 73% 30.13 in 10.0 mi NNW 12.7 mph - N/A   Clear
7:35 AM 5.0 °F -10.8 °F -1.7 °F 74% 30.15 in 10.0 mi NNW 11.5 mph - N/A   Clear
7:55 AM 3.6 °F -11.8 °F -2.2 °F 77% 30.16 in 10.0 mi WNW 10.4 mph - N/A   Clear
8:15 AM 1.6 °F -13.3 °F -4.2 °F 77% 30.16 in 10.0 mi NW 9.2 mph - N/A   Clear
8:35 AM 1.9 °F -16.2 °F -3.5 °F 78% 30.17 in 10.0 mi NW 13.8 mph - N/A   Scattered Clouds
8:55 AM 5.0 °F -10.0 °F -1.7 °F 74% 30.19 in 10.0 mi NW 10.4 mph - N/A   Scattered Clouds
9:15 AM 5.5 °F -8.4 °F -0.8 °F 75% 30.19 in 10.0 mi NW 9.2 mph - N/A   Clear
9:35 AM 7.5 °F -9.7 °F 1.0 °F 75% 30.21 in 10.0 mi NW 15.0 mph - N/A   Clear
9:55 AM 8.6 °F -7.7 °F 1.4 °F 73% 30.21 in 10.0 mi NW 13.8 mph - N/A   Clear
10:15 AM 10.0 °F -6.5 °F 2.8 °F 73% 30.21 in 10.0 mi WNW 15.0 mph - N/A   Clear
10:55 AM 14.0 °F -2.5 °F 4.8 °F 67% 30.22 in 10.0 mi NW 17.3 mph - N/A   Clear
11:15 AM 13.6 °F -0.7 °F 5.4 °F 70% 30.22 in 10.0 mi WNW 12.7 mph - N/A   Clear
11:35 AM 13.5 °F -1.5 °F 5.9 °F 72% 30.22 in 10.0 mi WNW 13.8 mph - N/A   Clear
11:55 AM 14.7 °F -0.5 °F 5.9 °F 68% 30.22 in 10.0 mi WNW 15.0 mph - N/A   Clear
12:15 PM 16.3 °F 0.5 °F 5.9 °F 64% 30.21 in 7.0 mi WNW 17.3 mph - N/A   Clear
12:35 PM 17.1 °F 1.0 °F 5.9 °F 62% 30.21 in 3.0 mi WNW 18.4 mph 23.0 mph N/A   Haze
12:55 PM 17.6 °F 1.7 °F 4.8 °F 57% 30.22 in 5.0 mi WNW 18.4 mph - N/A   Haze
1:15 PM 18.1 °F 4.4 °F 5.4 °F 57% 30.21 in 5.0 mi WNW 13.8 mph - N/A   Haze
1:35 PM 18.1 °F 3.9 °F 5.2 °F 57% 30.22 in 7.0 mi WNW 15.0 mph 18.4 mph N/A   Clear
1:55 PM 18.0 °F 3.6 °F 5.0 °F 57% 30.22 in 10.0 mi WNW 15.0 mph - N/A   Clear
2:35 PM 18.3 °F 4.1 °F 3.6 °F 53% 30.23 in 10.0 mi WNW 15.0 mph 21.9 mph N/A   Clear
2:55 PM 17.6 °F 3.7 °F 4.1 °F 56% 30.24 in 10.0 mi WNW 13.8 mph - N/A   Clear
3:15 PM 17.6 °F 3.2 °F 3.0 °F 53% 30.25 in 10.0 mi WNW 15.0 mph - N/A   Clear
3:35 PM 16.2 °F 1.3 °F 3.6 °F 58% 30.25 in 10.0 mi WNW 15.0 mph - N/A   Clear
3:55 PM 15.4 °F 1.0 °F 3.2 °F 59% 30.25 in 10.0 mi WNW 13.8 mph - N/A   Clear
4:15 PM 14.4 °F 0.9 °F 2.3 °F 59% 30.26 in 10.0 mi WNW 11.5 mph - N/A   Clear
4:35 PM 12.7 °F -1.8 °F 1.0 °F 60% 30.26 in 10.0 mi WNW 12.7 mph - N/A   Clear
4:55 PM 8.8 °F -5.3 °F -0.6 °F 66% 30.26 in 10.0 mi WNW 10.4 mph - N/A   Clear
5:15 PM 7.7 °F -6.6 °F -2.0 °F 65% 30.27 in 10.0 mi WNW 10.4 mph - N/A   Clear
5:35 PM 3.2 °F -12.2 °F -4.7 °F 70% 30.27 in 10.0 mi WNW 10.4 mph - N/A   Clear
5:55 PM 2.5 °F -13.1 °F -5.3 °F 70% 30.29 in 10.0 mi WNW 10.4 mph - N/A   Clear
6:15 PM 0.3 °F -14.8 °F -7.2 °F 70% 30.29 in 10.0 mi NW 9.2 mph - N/A   Clear
6:35 PM 3.9 °F -12.2 °F -6.0 °F 64% 30.30 in 10.0 mi NW 11.5 mph - N/A   Clear
6:55 PM 2.1 °F -12.6 °F -7.6 °F 64% 30.30 in 10.0 mi West 9.2 mph - N/A   Clear
7:15 PM -2.0 °F -16.6 °F -8.1 °F 75% 30.31 in 10.0 mi West 8.1 mph - N/A   Clear
7:35 PM -4.4 °F -22.6 °F -9.4 °F 79% 30.31 in 10.0 mi West 11.5 mph - N/A   Clear
7:55 PM -4.7 °F -18.6 °F -10.3 °F 77% 30.31 in 10.0 mi WNW 6.9 mph - N/A   Clear
8:15 PM -5.6 °F -23.2 °F -12.3 °F 73% 30.32 in 10.0 mi NNW 10.4 mph - N/A   Clear
8:35 PM -6.7 °F -21.0 °F -11.4 °F 80% 30.32 in 10.0 mi West 6.9 mph - N/A   Clear
8:55 PM -7.2 °F -20.1 °F -12.3 °F 79% 30.32 in 10.0 mi NNW 5.8 mph - N/A   Clear
9:15 PM -7.4 °F - -12.1 °F 80% 30.33 in 10.0 mi Calm Calm - N/A   Clear
9:35 PM -8.5 °F -19.8 °F -14.1 °F 77% 30.33 in 10.0 mi WSW 4.6 mph - N/A   Clear
9:55 PM -10.7 °F -22.3 °F -13.5 °F 87% 30.32 in 10.0 mi West 4.6 mph - N/A   Clear
10:15 PM -10.1 °F -19.4 °F -13.9 °F 83% 30.33 in 10.0 mi NW 3.5 mph - N/A   Clear
10:35 PM -13.9 °F -23.7 °F -17.9 °F 82% 30.32 in 10.0 mi West 3.5 mph - N/A   Clear
10:55 PM -13.7 °F -29.5 °F -16.2 °F 88% 30.32 in 10.0 mi WNW 6.9 mph - N/A   Clear
11:15 PM -15.5 °F -33.1 °F -19.5 °F 82% 30.32 in 10.0 mi WNW 8.1 mph - N/A   Clear
11:35 PM -15.3 °F - -18.8 °F 85% 30.33 in 10.0 mi Calm Calm - N/A   Clear
11:55 PM -16.6 °F -34.4 °F -20.6 °F 82% 30.33 in 10.0 mi West 8.1 mph - N/A   Clear